This demonstration page uses our WeatherBlox Daily Observations layout. Learn more.

Left ArrowRight Arrow

41.12389, -100.76542

Hourly Observations for January 31, 2017

Temp ( °F °C ) Dew Point ( °F °C ) Humidity (%) Winds ( mph kmh ) Pressure ( in mb ) Visibility ( mi km ) Precip ( " mm )
12:53 am 00:53 Clear 26 -3.3 21 -6.1 81 81 Calm 30.00 1016 10 16 0.00 0.00
1:53 am 01:53 Clear 24 -4.4 20 -6.7 84 84 NNW 6 9 30.00 1016 10 16 0.00 0.00
2:53 am 02:53 Clear 23 -5 19 -7.2 85 85 Calm 30.01 1016 10 16 0.00 0.00
3:53 am 03:53 Clear 27 -2.8 22 -5.6 81 81 N 3 6 30.00 1016 10 16 0.00 0.00
4:53 am 04:53 Mostly Clear 28 -2.2 24 -4.4 85 85 WNW 6 9 30.02 1017 10 16 0.00 0.00
5:53 am 05:53 Partly Cloudy 28 -2.2 24 -4.4 85 85 N 5 7 30.04 1017 10 16 0.00 0.00
6:53 am 06:53 Cloudy 28 -2.2 23 -5 81 81 WSW 6 9 30.04 1017 10 16 0.00 0.00
7:53 am 07:53 Cloudy 29 -1.7 25 -3.9 85 85 Calm 30.05 1018 10 16 0.00 0.00
8:53 am 08:53 Cloudy 31 -0.6 26 -3.3 82 82 Calm 30.06 1018 10 16 0.00 0.00
9:53 am 09:53 Sunny 34 1.1 27 -2.8 76 76 S 3 6 30.05 1018 10 16 0.00 0.00
10:53 am 10:53 Sunny 39 3.9 25 -3.9 57 57 Calm 30.05 1018 10 16 0.00 0.00
11:53 am 11:53 Sunny 42 5.6 22 -5.6 45 45 E 7 11 30.03 1017 10 16 0.00 0.00
12:53 pm 12:53 Sunny 42 5.6 21 -6.1 43 43 ESE 5 7 29.99 1016 10 16 0.00 0.00
1:53 pm 13:53 Sunny 45 7.2 20 -6.7 37 37 SE 7 11 29.95 1014 10 16 0.00 0.00
2:53 pm 14:53 Sunny 46 7.8 21 -6.1 37 37 SE 7 11 29.92 1013 10 16 0.00 0.00
3:53 pm 15:53 Sunny 45 7.2 21 -6.1 39 39 E 10 17 29.93 1014 10 16 0.00 0.00
4:53 pm 16:53 Sunny 43 6.1 21 -6.1 42 42 ESE 14 22 29.94 1014 10 16 0.00 0.00
5:53 pm 17:53 Sunny 37 2.8 22 -5.6 54 54 ESE 9 15 29.97 1015 10 16 0.00 0.00
6:53 pm 18:53 Clear 36 2.2 22 -5.6 57 57 NE 12 19 30.01 1016 10 16 0.00 0.00
7:53 pm 19:53 Mostly Clear 34 1.1 25 -3.9 70 70 NE 13 20 30.05 1018 10 16 0.00 0.00
8:53 pm 20:53 Clear 33 0.6 23 -5 66 66 NE 13 20 30.07 1018 10 16 0.00 0.00
9:53 pm 21:53 Clear 32 0 25 -3.9 75 75 NE 13 20 30.09 1019 10 16 0.00 0.00
10:48 pm 22:48 Mostly Cloudy 32 0 27 -3 80 80 NE 15 24 30.18 1022 10 16 0.00 0.00
10:53 pm 22:53 Mostly Cloudy 32 0 27 -2.8 82 82 NE 17 28 30.10 1019 10 16 0.00 0.00
11:19 pm 23:19 Cloudy 31 -0.6 26 -3.3 82 82 NE 14 22 30.21 1023 10 16 0.00 0.00
11:40 pm 23:40 Cloudy 30 -1.1 24 -4.4 79 79 NE 16 26 30.21 1023 10 16 0.00 0.00
11:53 pm 23:53 Cloudy 30 -1.1 24 -4.4 79 79 NNE 13 20 30.14 1021 10 16 0.00 0.00

Powered by AerisWeather